Regional Weather Roundup
Issued by NWS

Home | Current Version | Previous Version | Text Only | Print | Product List | Glossary Off
Versions: 1 2 3 4 5 6 7 8 9 10 11 12 13 14 15 16 17 18 19 20 21 22 23 24 25 26 27 28 29 30 31 32 33 34 35 36 37 38 39 40 41 42 43 44 45 46 47 48 49 50

488
ASUS44 KMEG 291400
RWRTN
TENNESSEE HOURLY STATE WEATHER ROUNDUP
NATIONAL WEATHER SERVICE MEMPHIS TN
900 AM CDT SUN MAY 29 2016

TNZ002-004-019-021-049-052-054-088>092-291500-
WEST TENNESSEE

CITY           SKY/WX    TMP DP  RH WIND       PRES   REMARKS
MEMPHIS INTL   MOSUNNY   79  71  76 CALM      30.14R
NWS MEMPHIS      N/A     77 N/A N/A MISG        N/A
JACKSON        MOSUNNY   77  70  79 W6        30.14S
DYERSBURG      MOSUNNY   75  70  83 S3        30.12S
PARIS          SUNNY     75  66  73 SW3       30.13S
LEXINGTON      CLOUDY    75  70  83 CALM      30.15R
$$

TNZ008-025-027-028-033-062-065-066-291500-
NORTH MIDDLE TENNESSEE

CITY           SKY/WX    TMP DP  RH WIND       PRES   REMARKS
NASHVILLE      SUNNY     78  65  63 CALM      30.16S
CLARKSVILLE    SUNNY     75  68  78 W5        30.14R
CROSSVILLE     PTSUNNY   72  63  73 CALM      30.21R
$$

TNZ061-075-076-078-094-096-097-291500-
SOUTH MIDDLE TENNESSEE

CITY           SKY/WX    TMP DP  RH WIND       PRES   REMARKS
SHELBYVILLE    SUNNY     81  66  61 W6        30.18S
$$

TNZ017-018-042-046-047-291500-
NORTHEAST TENNESSEE

CITY           SKY/WX    TMP DP  RH WIND       PRES   REMARKS
TRI CITIES     CLOUDY    70  60  70 CALM      30.19S
$$

TNZ012-013-036-069-073-074-291500-
CENTRAL EAST TENNESSEE

CITY           SKY/WX    TMP DP  RH WIND       PRES   REMARKS
KNOXVILLE      CLOUDY    77  62  59 SW3       30.14F
OAK RIDGE      PTSUNNY   77  63  61 CALM      30.16S
$$

TNZ083-085-099-291500-
SOUTHEAST TENNESSEE

CITY           SKY/WX    TMP DP  RH WIND       PRES   REMARKS
CHATTANOOGA    CLOUDY    72  64  76 CALM      30.16S
$$

SKY/WX REPORTED AS FAIR MEANS FEW OR NO CLOUDS BELOW
12 THOUSAND FEET.





USA.gov is the U.S. government's official web portal to all federal, state and local government web resources and services.